Regional Weather Roundup
Issued by NWS Mt. Holly, NJ

Home | Current Version | Previous Version | Text Only | Print | Product List | Glossary On
Versions: 1 2 3 4 5 6 7 8 9 10 11 12 13 14 15 16 17 18 19 20 21 22 23 24 25 26 27 28 29 30 31 32 33 34 35 36 37 38 39 40 41 42 43 44 45 46 47 48 49 50
000
ASUS41 KPHI 280312
RWRPHI

REGIONAL WEATHER ROUNDUP
NATIONAL WEATHER SERVICE MOUNT HOLLY NJ
1100 PM EDT THU AUG 27 2015

NOTE:  "FAIR" INDICATES FEW OR NO CLOUDS BELOW 12,000 FEET WITH NO
SIGNIFICANT WEATHER AND/OR OBSTRUCTIONS TO VISIBILITY.

 * = STATION DOES NOT REPORT PRECIPITATION (E.G. RAIN, SNOW, ETC.)
        OR FOG.

NJZ015>026-280400-
SOUTHERN NEW JERSEY

CITY           SKY/WX    TMP DP  RH WIND       PRES   REMARKS
POMONA         MOCLDY    65  57  75 NW3       30.13R
MILLVILLE      CLEAR     62  56  80 W5        30.14R
WRIGHTSTOWN    CLEAR     64  55  74 CALM      30.11R
MOUNT HOLLY    CLEAR     61  56  83 CALM      30.13R
TRENTON        CLEAR     65  55  70 NW3       30.13R

$$
NJZ001>014-280400-
NORTHERN NEW JERSEY

CITY           SKY/WX    TMP DP  RH WIND       PRES   REMARKS
SUSSEX         CLEAR     55  53  93 CALM      30.14S
ANDOVER*         N/A     55  54  96 CALM      30.15R
MORRISTOWN     CLEAR     55  50  82 CALM      30.13R
NEWARK         PTCLDY    70  54  56 NW7       30.11R
TETERBORO      CLEAR     69  52  54 N5        30.10S
CALDWELL       CLEAR     63  54  72 CALM      30.13R
SOMERVILLE     CLEAR     59  55  87 CALM      30.11R
ALLAIRE*       CLEAR     64  52  63 W5        30.12S
TOMS RIVER*    CLEAR     59  54  82 CALM      30.13R

$$
PAZ043-044-047-054-055-060>062-066>071-280400-
EASTERN PENNSYLVANIA

CITY           SKY/WX    TMP DP  RH WIND       PRES   REMARKS
PHILADELPHIA   CLEAR     71  54  54 NW7       30.14R
NORTH PHILA    CLEAR     66  54  65 CALM      30.15R
BLUE BELL      CLEAR     57  55  94 CALM      30.14R
DOYLESTOWN     CLEAR     59  56  89 CALM      30.14R
QUAKERTOWN*    CLEAR     57  55  94 CALM      30.16R
POTTSTOWN      CLEAR     60  56  86 CALM      30.16R
LANCASTER      CLEAR     63  56  78 W5        30.15S
COATESVILLE    CLEAR     63  55  77 NW5       30.17R
READING        CLEAR     63  56  78 CALM      30.14R
ALLENTOWN      CLEAR     61  53  75 CALM      30.14S
MOUNT POCONO   CLEAR     54  51  90 NW5       30.18S
HAZLETON       CLOUDY    54  52  94 CALM      30.21S
WILKES BARRE   CLOUDY    63  54  72 CALM      30.16S

$$
DEZALL-MDZ008-012-015-019-020-280400-
DELAWARE AND EASTERN MARYLAND

CITY           SKY/WX    TMP DP  RH WIND       PRES   REMARKS
WILMINGTON     PTCLDY    63  56  78 NW6       30.15R
DOVER          CLEAR     65  58  78 NW5       30.12R
GEORGETOWN     CLEAR     62  58  86 CALM      30.15R
PATUXENT       MOCLDY    62  59  90 CALM      30.14R
OCEAN CITY     PTCLDY    64  61  90 CALM      30.13R
WALLOPS ISLAND PTCLDY    67  63  87 NW5       30.13S
CAMBRIDGE      PTCLDY    64  59  82 NE3       30.14R
SALISBURY      CLEAR     63  60  90 CALM      30.13R

$$
PAZ001-021-NYZ056-072-MDZ011-DCZ001-280400-
OTHER NEARBY LOCATIONS

CITY           SKY/WX    TMP DP  RH WIND       PRES   REMARKS
HARRISBURG     PTCLDY    67  59  75 CALM      30.15R
STATE COLLEGE  CLOUDY    62  57  83 SW5       30.18S
WILLIAMSPORT   CLOUDY    65  58  78 N3        30.15R
BINGHAMTON     CLEAR     57  53  86 NW3       30.19R
NEW YORK CITY  CLEAR     71  52  50 NW7       30.14R
BALTIMORE      PTCLDY    63  58  83 CALM      30.15R
WASHINGTON DC  PTCLDY    75  57  53 NE3       30.16R

$$



USA.gov is the U.S. government's official web portal to all federal, state and local government web resources and services.